China Lake, CA

12:44 PM PDT on April 25, 2017 (GMT -0700)
China Lake NAWS

Weather History for KNID - January, 2012

Change the Weather History Date:

Saturday, January 28, 2012

  Actual Average Record
Temperature  
Mean Temperature 46 °F -  
Max Temperature 63 °F 58 °F 80 °F (2017)
Min Temperature 28 °F 33 °F 22 °F (1999)
Degree Days  
Heating Degree Days 20    
Moisture  
Dew Point 11 °F    
Average Humidity 29    
Maximum Humidity 61    
Minimum Humidity 9    
Precipitation  
Precipitation 0.00 in - - ()
Sea Level Pressure  
Sea Level Pressure 30.38 in    
Wind  
Wind Speed 6 mph (SSW)    
Max Wind Speed 10 mph    
Max Gust Speed -    
Visibility 10 miles    
Events      
Averages and records for this station are not official NWS values.
T = Trace of Precipitation, MM = Missing Value Source: NWS Daily Summary

Daily Weather History Graph

Daily Weather History Graph

Search for Another Location

Airport or City:

Trip Planner

Search our weather history database for the weather conditions in past years. The results will help you decide how hot, cold, wet, or windy it might be!

Date:

Astronomy

Jan. 28, 2012 Rise Set
Actual Time 6:53 AM PST 5:13 PM PST
Civil Twilight 6:26 AM PST 5:40 PM PST
Nautical Twilight 5:56 AM PST 6:11 PM PST
Astronomical Twilight 5:25 AM PST 6:41 PM PST
Moon 9:31 AM PST (1/28) 10:51 PM PST (1/28)
Length of Visible Light 11h 13m
Length of Day
10h 19m
Waxing Crescent, 29% of the Moon is Illuminated
Jan 28
Waxing Crescent
Jan 30
First Quarter
Feb 7
Full
Feb 14
Last Quarter
Feb 21
New

Hourly Weather History & Observations

Time (PST) Temp. Windchill Dew Point Humidity Pressure Visibility Wind Dir Wind Speed Gust Speed Precip Events Conditions
12:56 AM 48.0 °F - 16.0 °F 28% 30.31 in 10.0 mi WNW 9.2 mph - N/A   Clear
1:56 AM 43.0 °F 40.3 °F 16.0 °F 34% 30.32 in 10.0 mi SSW 4.6 mph - N/A   Clear
2:56 AM 43.0 °F 39.5 °F 17.1 °F 35% 30.33 in 10.0 mi NNW 5.8 mph - N/A   Clear
3:56 AM 37.0 °F 30.4 °F 18.0 °F 46% 30.33 in 10.0 mi South 9.2 mph - N/A   Clear
4:56 AM 34.0 °F 29.8 °F 18.0 °F 52% 30.36 in 10.0 mi SSW 4.6 mph - N/A   Clear
5:56 AM 33.1 °F 24.9 °F 18.0 °F 54% 30.38 in 10.0 mi SSW 10.4 mph - N/A   Clear
6:56 AM 28.9 °F 25.2 °F 17.1 °F 61% 30.41 in 10.0 mi West 3.5 mph - N/A   Clear
7:56 AM 37.0 °F - 19.0 °F 48% 30.42 in 10.0 mi Calm Calm - N/A   Clear
8:56 AM 46.0 °F 43.1 °F 19.9 °F 35% 30.42 in 10.0 mi SE 5.8 mph - N/A   Clear
9:56 AM 53.1 °F - 12.9 °F 20% 30.43 in 10.0 mi SE 5.8 mph - N/A   Clear
10:56 AM 55.9 °F - 10.0 °F 16% 30.44 in 10.0 mi ESE 5.8 mph - N/A   Clear
11:56 AM 59.0 °F - 9.0 °F 14% 30.41 in 10.0 mi Variable 3.5 mph - N/A   Clear
12:56 PM 59.0 °F - 7.0 °F 13% 30.38 in 10.0 mi Calm Calm - N/A   Clear
1:56 PM 62.1 °F - 6.1 °F 11% 30.36 in 10.0 mi North 3.5 mph - N/A   Clear
2:56 PM 63.0 °F - 5.0 °F 10% 30.35 in 10.0 mi East 5.8 mph - N/A   Clear
3:56 PM 62.1 °F - 1.9 °F 9% 30.35 in 10.0 mi Calm Calm - N/A   Clear
4:56 PM 59.0 °F - 1.0 °F 10% 30.35 in 10.0 mi ESE 4.6 mph - N/A   Clear
5:56 PM 48.9 °F - 1.9 °F 15% 30.38 in 10.0 mi Calm Calm - N/A   Clear
6:56 PM 46.0 °F 43.1 °F 10.9 °F 24% 30.41 in 10.0 mi SW 5.8 mph - N/A   Clear
7:56 PM 41.0 °F 35.2 °F 12.0 °F 31% 30.41 in 10.0 mi WSW 9.2 mph - N/A   Clear
8:56 PM 37.9 °F 32.1 °F 7.0 °F 28% 30.41 in 10.0 mi South 8.1 mph - N/A   Clear
9:56 PM 37.0 °F 31.0 °F 6.1 °F 28% 30.40 in 10.0 mi SSW 8.1 mph - N/A   Clear
10:56 PM 37.0 °F 31.0 °F 10.9 °F 34% 30.40 in 10.0 mi SSW 8.1 mph - N/A   Clear
11:56 PM 32.0 °F 26.4 °F 12.9 °F 45% 30.40 in 10.0 mi SW 5.8 mph - N/A   Clear